Year,Month,Day,Hour,Minute,Value (Times are PST for temperature in C)
2015,11,17,00,00,5.30
2015,11,17,00,01,5.30
2015,11,17,00,02,5.30
2015,11,17,00,03,5.30
2015,11,17,00,04,5.30
2015,11,17,00,05,5.30
2015,11,17,00,06,5.30
2015,11,17,00,07,5.30
2015,11,17,00,08,5.30
2015,11,17,00,09,5.30
2015,11,17,00,10,5.30
2015,11,17,00,11,5.30
2015,11,17,00,12,5.30
2015,11,17,00,13,5.30
2015,11,17,00,14,5.30
2015,11,17,00,15,5.30
2015,11,17,00,16,5.20
2015,11,17,00,17,5.20
2015,11,17,00,18,5.20
2015,11,17,00,19,5.20
2015,11,17,00,20,5.20
2015,11,17,00,21,5.20
2015,11,17,00,22,5.20
2015,11,17,00,23,5.20
2015,11,17,00,24,5.20
2015,11,17,00,25,5.20
2015,11,17,00,26,5.20
2015,11,17,00,27,5.20
2015,11,17,00,28,5.20
2015,11,17,00,29,5.20
2015,11,17,00,30,5.20
2015,11,17,00,31,5.20
2015,11,17,00,32,5.20
2015,11,17,00,33,5.20
2015,11,17,00,34,5.20
2015,11,17,00,35,5.20
2015,11,17,00,36,5.20
2015,11,17,00,37,5.30
2015,11,17,00,38,5.30
2015,11,17,00,39,5.30
2015,11,17,00,40,5.30
2015,11,17,00,41,5.30
2015,11,17,00,42,5.30
2015,11,17,00,43,5.30
2015,11,17,00,44,5.30
2015,11,17,00,45,5.20
2015,11,17,00,46,5.20
2015,11,17,00,47,5.30
2015,11,17,00,48,5.30
2015,11,17,00,49,5.30
2015,11,17,00,50,5.20
2015,11,17,00,51,5.20
2015,11,17,00,52,5.20
2015,11,17,00,53,5.20
2015,11,17,00,54,5.20
2015,11,17,00,55,5.20
2015,11,17,00,56,5.20
2015,11,17,00,57,5.20
2015,11,17,00,58,5.20
2015,11,17,00,59,5.20
2015,11,17,01,00,5.20
2015,11,17,01,01,5.20
2015,11,17,01,02,5.20
2015,11,17,01,03,5.20
2015,11,17,01,04,5.20
2015,11,17,01,05,5.20
2015,11,17,01,06,5.20
2015,11,17,01,07,5.20
2015,11,17,01,08,5.20
2015,11,17,01,09,5.20
2015,11,17,01,10,5.20
2015,11,17,01,11,5.20
2015,11,17,01,12,5.20
2015,11,17,01,13,5.20
2015,11,17,01,14,5.20
2015,11,17,01,15,5.20
2015,11,17,01,16,5.20
2015,11,17,01,17,5.20
2015,11,17,01,18,5.20
2015,11,17,01,19,5.20
2015,11,17,01,20,5.20
2015,11,17,01,21,5.20
2015,11,17,01,22,5.20
2015,11,17,01,23,5.20
2015,11,17,01,24,5.20
2015,11,17,01,25,5.20
2015,11,17,01,26,5.20
2015,11,17,01,27,5.20
2015,11,17,01,28,5.20
2015,11,17,01,29,5.20
2015,11,17,01,30,5.20
2015,11,17,01,31,5.20
2015,11,17,01,32,5.20
2015,11,17,01,33,5.20
2015,11,17,01,34,5.20
2015,11,17,01,35,5.30
2015,11,17,01,36,5.30
2015,11,17,01,37,5.30
2015,11,17,01,38,5.40
2015,11,17,01,39,5.40
2015,11,17,01,40,5.40
2015,11,17,01,41,5.40
2015,11,17,01,42,5.40
2015,11,17,01,43,5.40
2015,11,17,01,44,5.40
2015,11,17,01,45,5.40
2015,11,17,01,46,5.40
2015,11,17,01,47,5.40
2015,11,17,01,48,5.40
2015,11,17,01,49,5.40
2015,11,17,01,50,5.40
2015,11,17,01,51,5.40
2015,11,17,01,52,5.30
2015,11,17,01,53,5.30
2015,11,17,01,54,5.30
2015,11,17,01,55,5.30
2015,11,17,01,56,5.30
2015,11,17,01,57,5.30
2015,11,17,01,58,5.30
2015,11,17,01,59,5.30
2015,11,17,02,00,5.30
2015,11,17,02,01,5.30
2015,11,17,02,02,5.30
2015,11,17,02,03,5.30
2015,11,17,02,04,5.30
2015,11,17,02,05,5.30
2015,11,17,02,06,5.30
2015,11,17,02,07,5.30
2015,11,17,02,08,5.30
2015,11,17,02,09,5.40
2015,11,17,02,10,5.30
2015,11,17,02,11,5.30
2015,11,17,02,12,5.40
2015,11,17,02,13,5.30
2015,11,17,02,14,5.30
2015,11,17,02,15,5.40
2015,11,17,02,16,5.40
2015,11,17,02,17,5.40
2015,11,17,02,18,5.40
2015,11,17,02,19,5.40
2015,11,17,02,20,5.40
2015,11,17,02,21,5.40
2015,11,17,02,22,5.40
2015,11,17,02,23,5.40
2015,11,17,02,24,5.40
2015,11,17,02,25,5.40
2015,11,17,02,26,5.50
2015,11,17,02,27,5.50
2015,11,17,02,28,5.50
2015,11,17,02,29,5.50
2015,11,17,02,30,5.50
2015,11,17,02,31,5.50
2015,11,17,02,32,5.50
2015,11,17,02,33,5.60
2015,11,17,02,34,5.60
2015,11,17,02,35,5.60
2015,11,17,02,36,5.60
2015,11,17,02,37,5.60
2015,11,17,02,38,5.60
2015,11,17,02,39,5.60
2015,11,17,02,40,5.60
2015,11,17,02,41,5.60
2015,11,17,02,42,5.60
2015,11,17,02,43,5.60
2015,11,17,02,44,5.60
2015,11,17,02,45,5.60
2015,11,17,02,46,5.70
2015,11,17,02,47,5.60
2015,11,17,02,48,5.70
2015,11,17,02,49,5.70
2015,11,17,02,50,5.70
2015,11,17,02,51,5.70
2015,11,17,02,52,5.70
2015,11,17,02,53,5.70
2015,11,17,02,54,5.70
2015,11,17,02,55,5.70
2015,11,17,02,56,5.70
2015,11,17,02,57,5.70
2015,11,17,02,58,5.70
2015,11,17,02,59,5.70
2015,11,17,03,00,5.80
2015,11,17,03,01,5.80
2015,11,17,03,02,5.80
2015,11,17,03,03,5.80
2015,11,17,03,04,5.80
2015,11,17,03,05,5.80
2015,11,17,03,06,5.80
2015,11,17,03,07,5.90
2015,11,17,03,08,5.90
2015,11,17,03,09,5.90
2015,11,17,03,10,5.90
2015,11,17,03,11,5.90
2015,11,17,03,12,5.90
2015,11,17,03,13,5.90
2015,11,17,03,14,5.90
2015,11,17,03,15,5.90
2015,11,17,03,16,5.90
2015,11,17,03,17,5.90
2015,11,17,03,18,5.90
2015,11,17,03,19,5.90
2015,11,17,03,20,5.90
2015,11,17,03,21,5.90
2015,11,17,03,22,5.90
2015,11,17,03,23,5.90
2015,11,17,03,24,5.90
2015,11,17,03,25,6.00
2015,11,17,03,26,6.00
2015,11,17,03,27,6.00
2015,11,17,03,28,6.00
2015,11,17,03,29,6.00
2015,11,17,03,30,6.00
2015,11,17,03,31,6.00
2015,11,17,03,32,6.00
2015,11,17,03,33,6.00
2015,11,17,03,34,6.00
2015,11,17,03,35,6.10
2015,11,17,03,36,6.10
2015,11,17,03,37,6.10
2015,11,17,03,38,6.10
2015,11,17,03,39,6.10
2015,11,17,03,40,6.10
2015,11,17,03,41,6.10
2015,11,17,03,42,6.10
2015,11,17,03,43,6.10
2015,11,17,03,44,6.10
2015,11,17,03,45,6.00
2015,11,17,03,46,6.00
2015,11,17,03,47,6.00
2015,11,17,03,48,6.00
2015,11,17,03,49,6.00
2015,11,17,03,50,6.00
2015,11,17,03,51,6.00
2015,11,17,03,52,6.00
2015,11,17,03,53,5.90
2015,11,17,03,54,5.90
2015,11,17,03,55,5.90
2015,11,17,03,56,5.90
2015,11,17,03,57,5.90
2015,11,17,03,58,5.90
2015,11,17,03,59,5.90
2015,11,17,04,00,5.90
2015,11,17,04,01,5.90
2015,11,17,04,02,5.90
2015,11,17,04,03,5.80
2015,11,17,04,04,5.80
2015,11,17,04,05,5.80
2015,11,17,04,06,5.80
2015,11,17,04,07,5.80
2015,11,17,04,08,5.80
2015,11,17,04,09,5.80
2015,11,17,04,10,5.80
2015,11,17,04,11,5.80
2015,11,17,04,12,5.80
2015,11,17,04,13,5.80
2015,11,17,04,14,5.80
2015,11,17,04,15,5.80
2015,11,17,04,16,5.80
2015,11,17,04,17,5.80
2015,11,17,04,18,5.80
2015,11,17,04,19,5.80
2015,11,17,04,20,5.80
2015,11,17,04,21,5.70
2015,11,17,04,22,5.70
2015,11,17,04,23,5.70
2015,11,17,04,24,5.70
2015,11,17,04,25,5.70
2015,11,17,04,26,5.70
2015,11,17,04,27,5.70
2015,11,17,04,28,5.70
2015,11,17,04,29,5.70
2015,11,17,04,30,5.70
2015,11,17,04,31,5.70
2015,11,17,04,32,5.70
2015,11,17,04,33,5.70
2015,11,17,04,34,5.70
2015,11,17,04,35,5.70
2015,11,17,04,36,5.70
2015,11,17,04,37,5.70
2015,11,17,04,38,5.60
2015,11,17,04,39,5.60
2015,11,17,04,40,5.60
2015,11,17,04,41,5.60
2015,11,17,04,42,5.60
2015,11,17,04,43,5.60
2015,11,17,04,44,5.60
2015,11,17,04,45,5.60
2015,11,17,04,46,5.60
2015,11,17,04,47,5.60
2015,11,17,04,48,5.60
2015,11,17,04,49,5.60
2015,11,17,04,50,5.60
2015,11,17,04,51,5.60
2015,11,17,04,52,5.60
2015,11,17,04,53,5.70
2015,11,17,04,54,5.70
2015,11,17,04,55,5.70
2015,11,17,04,56,5.70
2015,11,17,04,57,5.70
2015,11,17,04,58,5.70
2015,11,17,04,59,5.70
2015,11,17,05,00,5.70
2015,11,17,05,01,5.70
2015,11,17,05,02,5.70
2015,11,17,05,03,5.70
2015,11,17,05,04,5.70
2015,11,17,05,05,5.70
2015,11,17,05,06,5.70
2015,11,17,05,07,5.70
2015,11,17,05,08,5.70
2015,11,17,05,09,5.70
2015,11,17,05,10,5.70
2015,11,17,05,11,5.70
2015,11,17,05,12,5.70
2015,11,17,05,13,5.80
2015,11,17,05,14,5.80
2015,11,17,05,15,5.80
2015,11,17,05,16,5.80
2015,11,17,05,17,5.80
2015,11,17,05,18,5.90
2015,11,17,05,19,5.90
2015,11,17,05,20,6.00
2015,11,17,05,21,6.00
2015,11,17,05,22,6.00
2015,11,17,05,23,6.10
2015,11,17,05,24,6.10
2015,11,17,05,25,6.10
2015,11,17,05,26,6.20
2015,11,17,05,27,6.20
2015,11,17,05,28,6.20
2015,11,17,05,29,6.20
2015,11,17,05,30,6.20
2015,11,17,05,31,6.20
2015,11,17,05,32,6.20
2015,11,17,05,33,6.20
2015,11,17,05,34,6.20
2015,11,17,05,35,6.30
2015,11,17,05,36,6.30
2015,11,17,05,37,6.30
2015,11,17,05,38,6.30
2015,11,17,05,39,6.40
2015,11,17,05,40,6.40
2015,11,17,05,41,6.40
2015,11,17,05,42,6.50
2015,11,17,05,43,6.50
2015,11,17,05,44,6.50
2015,11,17,05,45,6.60
2015,11,17,05,46,6.60
2015,11,17,05,47,6.60
2015,11,17,05,48,6.60
2015,11,17,05,49,6.60
2015,11,17,05,50,6.60
2015,11,17,05,51,6.70
2015,11,17,05,52,6.60
2015,11,17,05,53,6.60
2015,11,17,05,54,6.60
2015,11,17,05,55,6.70
2015,11,17,05,56,6.70
2015,11,17,05,57,6.70
2015,11,17,05,58,6.80
2015,11,17,05,59,6.80
2015,11,17,06,00,6.80
2015,11,17,06,01,6.80
2015,11,17,06,02,6.80
2015,11,17,06,03,6.80
2015,11,17,06,04,6.80
2015,11,17,06,05,6.90
2015,11,17,06,06,6.90
2015,11,17,06,07,6.90
2015,11,17,06,08,6.90
2015,11,17,06,09,6.90
2015,11,17,06,10,6.90
2015,11,17,06,11,6.90
2015,11,17,06,12,7.00
2015,11,17,06,13,7.00
2015,11,17,06,14,7.00
2015,11,17,06,15,7.00
2015,11,17,06,16,7.10
2015,11,17,06,17,7.10
2015,11,17,06,18,7.10
2015,11,17,06,19,7.00
2015,11,17,06,20,7.00
2015,11,17,06,21,7.00
2015,11,17,06,22,7.00
2015,11,17,06,23,7.00
2015,11,17,06,24,7.00
2015,11,17,06,25,7.00
2015,11,17,06,26,7.00
2015,11,17,06,27,7.10
2015,11,17,06,28,7.10
2015,11,17,06,29,7.10
2015,11,17,06,30,7.10
2015,11,17,06,31,7.10
2015,11,17,06,32,7.10
2015,11,17,06,33,7.10
2015,11,17,06,34,7.10
2015,11,17,06,35,7.10
2015,11,17,06,36,7.10
2015,11,17,06,37,7.10
2015,11,17,06,38,7.10
2015,11,17,06,39,7.20
2015,11,17,06,40,7.20
2015,11,17,06,41,7.20
2015,11,17,06,42,7.20
2015,11,17,06,43,7.20
2015,11,17,06,44,7.20
2015,11,17,06,45,7.20
2015,11,17,06,46,7.20
2015,11,17,06,47,7.30
2015,11,17,06,48,7.30
2015,11,17,06,49,7.30
2015,11,17,06,50,7.30
2015,11,17,06,51,7.30
2015,11,17,06,52,7.30
2015,11,17,06,53,7.30
2015,11,17,06,54,7.30
2015,11,17,06,55,7.30
2015,11,17,06,56,7.30
2015,11,17,06,57,7.40
2015,11,17,06,58,7.40
2015,11,17,06,59,7.40
2015,11,17,07,00,7.40
2015,11,17,07,01,7.50
2015,11,17,07,02,7.50
2015,11,17,07,03,7.50
2015,11,17,07,04,7.60
2015,11,17,07,05,7.60
2015,11,17,07,06,7.60
2015,11,17,07,07,7.60
2015,11,17,07,08,7.60
2015,11,17,07,09,7.60
2015,11,17,07,10,7.60
2015,11,17,07,11,7.60
2015,11,17,07,12,7.60
2015,11,17,07,13,7.60
2015,11,17,07,14,7.60
2015,11,17,07,15,7.60
2015,11,17,07,16,7.60
2015,11,17,07,17,7.60
2015,11,17,07,18,7.70
2015,11,17,07,19,7.70
2015,11,17,07,20,7.60
2015,11,17,07,21,7.70
2015,11,17,07,22,7.70
2015,11,17,07,23,7.60
2015,11,17,07,24,7.60
2015,11,17,07,25,7.70
2015,11,17,07,26,7.70
2015,11,17,07,27,7.70
2015,11,17,07,28,7.70
2015,11,17,07,29,7.70
2015,11,17,07,30,7.70
2015,11,17,07,31,7.70
2015,11,17,07,32,7.70
2015,11,17,07,33,7.70
2015,11,17,07,34,7.70
2015,11,17,07,35,7.80
2015,11,17,07,36,7.80
2015,11,17,07,37,7.80
2015,11,17,07,38,7.90
2015,11,17,07,39,7.80
2015,11,17,07,40,7.80
2015,11,17,07,41,7.70
2015,11,17,07,42,7.70
2015,11,17,07,43,7.60
2015,11,17,07,44,7.60
2015,11,17,07,45,7.60
2015,11,17,07,46,7.60
2015,11,17,07,47,7.70
2015,11,17,07,48,7.70
2015,11,17,07,49,7.60
2015,11,17,07,50,7.60
2015,11,17,07,51,7.60
2015,11,17,07,52,7.60
2015,11,17,07,53,7.60
2015,11,17,07,54,7.60
2015,11,17,07,55,7.60
2015,11,17,07,56,7.50
2015,11,17,07,57,7.60
2015,11,17,07,58,7.50
2015,11,17,07,59,7.50
2015,11,17,08,00,7.50
2015,11,17,08,01,7.50
2015,11,17,08,02,7.50
2015,11,17,08,03,7.40
2015,11,17,08,04,7.40
2015,11,17,08,05,7.40
2015,11,17,08,06,7.40
2015,11,17,08,07,7.40
2015,11,17,08,08,7.30
2015,11,17,08,09,7.30
2015,11,17,08,10,7.30
2015,11,17,08,11,7.30
2015,11,17,08,12,7.30
2015,11,17,08,13,7.30
2015,11,17,08,14,7.30
2015,11,17,08,15,7.30
2015,11,17,08,16,7.40
2015,11,17,08,17,7.40
2015,11,17,08,18,7.40
2015,11,17,08,19,7.50
2015,11,17,08,20,7.50
2015,11,17,08,21,7.50
2015,11,17,08,22,7.50
2015,11,17,08,23,7.60
2015,11,17,08,24,7.70
2015,11,17,08,25,7.80
2015,11,17,08,26,7.80
2015,11,17,08,27,7.80
2015,11,17,08,28,7.90
2015,11,17,08,29,8.00
2015,11,17,08,30,8.10
2015,11,17,08,31,8.10
2015,11,17,08,32,8.20
2015,11,17,08,33,8.20
2015,11,17,08,34,8.20
2015,11,17,08,35,8.30
2015,11,17,08,36,8.30
2015,11,17,08,37,8.30
2015,11,17,08,38,8.30
2015,11,17,08,39,8.40
2015,11,17,08,40,8.40
2015,11,17,08,41,8.40
2015,11,17,08,42,8.50
2015,11,17,08,43,8.50
2015,11,17,08,44,8.50
2015,11,17,08,45,8.60
2015,11,17,08,46,8.60
2015,11,17,08,47,8.60
2015,11,17,08,48,8.70
2015,11,17,08,49,8.70
2015,11,17,08,50,8.70
2015,11,17,08,51,8.80
2015,11,17,08,52,8.80
2015,11,17,08,53,8.90
2015,11,17,08,54,8.90
2015,11,17,08,55,8.90
2015,11,17,08,56,8.80
2015,11,17,08,57,8.90
2015,11,17,08,58,8.90
2015,11,17,08,59,8.90
2015,11,17,09,00,8.90
2015,11,17,09,01,8.90
2015,11,17,09,02,8.90
2015,11,17,09,03,8.90
2015,11,17,09,04,8.90
2015,11,17,09,05,8.90
2015,11,17,09,06,8.90
2015,11,17,09,07,8.90
2015,11,17,09,08,8.90
2015,11,17,09,09,8.90
2015,11,17,09,10,8.90
2015,11,17,09,11,8.90
2015,11,17,09,12,8.90
2015,11,17,09,13,8.90
2015,11,17,09,14,8.80
2015,11,17,09,15,8.80
2015,11,17,09,16,8.80
2015,11,17,09,17,8.70
2015,11,17,09,18,8.70
2015,11,17,09,19,8.60
2015,11,17,09,20,8.60
2015,11,17,09,21,8.60
2015,11,17,09,22,8.60
2015,11,17,09,23,8.50
2015,11,17,09,24,8.50
2015,11,17,09,25,8.40
2015,11,17,09,26,8.40
2015,11,17,09,27,8.40
2015,11,17,09,28,8.40
2015,11,17,09,29,8.30
2015,11,17,09,30,8.30
2015,11,17,09,31,8.30
2015,11,17,09,32,8.30
2015,11,17,09,33,8.50
2015,11,17,09,34,8.70
2015,11,17,09,35,8.80
2015,11,17,09,36,8.80
2015,11,17,09,37,8.80
2015,11,17,09,38,8.80
2015,11,17,09,39,8.80
2015,11,17,09,40,8.90
2015,11,17,09,41,9.00
2015,11,17,09,42,9.00
2015,11,17,09,43,9.10
2015,11,17,09,44,9.10
2015,11,17,09,45,9.10
2015,11,17,09,46,9.20
2015,11,17,09,47,9.30
2015,11,17,09,48,9.50
2015,11,17,09,49,9.70
2015,11,17,09,50,9.80
2015,11,17,09,51,10.00
2015,11,17,09,52,10.10
2015,11,17,09,53,10.30
2015,11,17,09,54,10.40
2015,11,17,09,55,10.50
2015,11,17,09,56,10.70
2015,11,17,09,57,10.80
2015,11,17,09,58,10.90
2015,11,17,09,59,11.10
2015,11,17,10,00,11.30
2015,11,17,10,01,11.40
2015,11,17,10,02,11.60
2015,11,17,10,03,11.60
2015,11,17,10,04,11.70
2015,11,17,10,05,11.90
2015,11,17,10,06,12.10
2015,11,17,10,07,12.30
2015,11,17,10,08,12.60
2015,11,17,10,09,12.70
2015,11,17,10,10,12.90
2015,11,17,10,11,13.00
2015,11,17,10,12,13.10
2015,11,17,10,13,13.30
2015,11,17,10,14,13.30
2015,11,17,10,15,13.30
2015,11,17,10,16,13.40
2015,11,17,10,17,13.40
2015,11,17,10,18,13.50
2015,11,17,10,19,13.60
2015,11,17,10,20,13.70
2015,11,17,10,21,13.80
2015,11,17,10,22,14.00
2015,11,17,10,23,14.10
2015,11,17,10,24,14.10
2015,11,17,10,25,14.10
2015,11,17,10,26,14.00
2015,11,17,10,27,14.00
2015,11,17,10,28,14.00
2015,11,17,10,29,14.10
2015,11,17,10,30,14.10
2015,11,17,10,31,14.10
2015,11,17,10,32,14.10
2015,11,17,10,33,14.20
2015,11,17,10,34,14.10
2015,11,17,10,35,14.10
2015,11,17,10,36,14.10
2015,11,17,10,37,14.00
2015,11,17,10,38,14.00
2015,11,17,10,39,14.10
2015,11,17,10,40,14.10
2015,11,17,10,41,14.20
2015,11,17,10,42,14.30
2015,11,17,10,43,14.40
2015,11,17,10,44,14.40
2015,11,17,10,45,14.40
2015,11,17,10,46,14.40
2015,11,17,10,47,14.50
2015,11,17,10,48,14.50
2015,11,17,10,49,14.50
2015,11,17,10,50,14.50
2015,11,17,10,51,14.50
2015,11,17,10,52,14.50
2015,11,17,10,53,14.50
2015,11,17,10,54,14.50
2015,11,17,10,55,14.50
2015,11,17,10,56,14.50
2015,11,17,10,57,14.40
2015,11,17,10,58,14.40
2015,11,17,10,59,14.30
2015,11,17,11,00,14.20
2015,11,17,11,01,14.20
2015,11,17,11,02,14.10
2015,11,17,11,03,14.10
2015,11,17,11,04,14.00
2015,11,17,11,05,13.90
2015,11,17,11,06,13.80
2015,11,17,11,07,13.70
2015,11,17,11,08,13.70
2015,11,17,11,09,13.60
2015,11,17,11,10,13.50
2015,11,17,11,11,13.40
2015,11,17,11,12,13.40
2015,11,17,11,13,13.30
2015,11,17,11,14,13.30
2015,11,17,11,15,13.20
2015,11,17,11,16,13.20
2015,11,17,11,17,13.20
2015,11,17,11,18,13.10
2015,11,17,11,19,13.10
2015,11,17,11,20,13.10
2015,11,17,11,21,13.10
2015,11,17,11,22,13.20
2015,11,17,11,23,13.20
2015,11,17,11,24,13.30
2015,11,17,11,25,13.30
2015,11,17,11,26,13.40
2015,11,17,11,27,13.40
2015,11,17,11,28,13.40
2015,11,17,11,29,13.40
2015,11,17,11,30,13.40
2015,11,17,11,31,13.40
2015,11,17,11,32,13.40
2015,11,17,11,33,13.30
2015,11,17,11,34,13.30
2015,11,17,11,35,13.30
2015,11,17,11,36,13.30
2015,11,17,11,37,13.30
2015,11,17,11,38,13.30
2015,11,17,11,39,13.30
2015,11,17,11,40,13.30
2015,11,17,11,41,13.30
2015,11,17,11,42,13.40
2015,11,17,11,43,13.40
2015,11,17,11,44,13.50
2015,11,17,11,45,13.50
2015,11,17,11,46,13.50
2015,11,17,11,47,13.60
2015,11,17,11,48,13.60
2015,11,17,11,49,13.60
2015,11,17,11,50,13.60
2015,11,17,11,51,13.60
2015,11,17,11,52,13.60
2015,11,17,11,53,13.60
2015,11,17,11,54,13.60
2015,11,17,11,55,13.60
2015,11,17,11,56,13.60
2015,11,17,11,57,13.50
2015,11,17,11,58,13.50
2015,11,17,11,59,13.40
2015,11,17,12,00,13.40
2015,11,17,12,01,13.40
2015,11,17,12,02,13.40
2015,11,17,12,03,13.30
2015,11,17,12,04,13.30
2015,11,17,12,05,13.30
2015,11,17,12,06,13.20
2015,11,17,12,07,13.20
2015,11,17,12,08,13.10
2015,11,17,12,09,13.10
2015,11,17,12,10,13.00
2015,11,17,12,11,13.00
2015,11,17,12,12,12.90
2015,11,17,12,13,12.90
2015,11,17,12,14,12.90
2015,11,17,12,15,12.80
2015,11,17,12,16,12.80
2015,11,17,12,17,12.80
2015,11,17,12,18,12.80
2015,11,17,12,19,12.80
2015,11,17,12,20,12.70
2015,11,17,12,21,12.70
2015,11,17,12,22,12.70
2015,11,17,12,23,12.80
2015,11,17,12,24,12.80
2015,11,17,12,25,12.80
2015,11,17,12,26,12.90
2015,11,17,12,27,12.90
2015,11,17,12,28,12.90
2015,11,17,12,29,12.90
2015,11,17,12,30,12.90
2015,11,17,12,31,12.90
2015,11,17,12,32,13.00
2015,11,17,12,33,13.00
2015,11,17,12,34,13.00
2015,11,17,12,35,13.00
2015,11,17,12,36,12.90
2015,11,17,12,37,12.90
2015,11,17,12,38,12.90
2015,11,17,12,39,12.90
2015,11,17,12,40,12.90
2015,11,17,12,41,12.80
2015,11,17,12,42,12.80
2015,11,17,12,43,12.80
2015,11,17,12,44,12.80
2015,11,17,12,45,12.80
2015,11,17,12,46,12.70
2015,11,17,12,47,12.70
2015,11,17,12,48,12.60
2015,11,17,12,49,12.60
2015,11,17,12,50,12.60
2015,11,17,12,51,12.60
2015,11,17,12,52,12.50
2015,11,17,12,53,12.50
2015,11,17,12,54,12.40
2015,11,17,12,55,12.30
2015,11,17,12,56,12.30
2015,11,17,12,57,12.20
2015,11,17,12,58,12.20
2015,11,17,12,59,12.10
2015,11,17,13,00,12.10
2015,11,17,13,01,12.10
2015,11,17,13,02,12.00
2015,11,17,13,03,11.90
2015,11,17,13,04,11.90
2015,11,17,13,05,11.90
2015,11,17,13,06,11.90
2015,11,17,13,07,11.90
2015,11,17,13,08,11.90
2015,11,17,13,09,11.90
2015,11,17,13,10,11.90
2015,11,17,13,11,11.90
2015,11,17,13,12,11.80
2015,11,17,13,13,11.90
2015,11,17,13,14,11.90
2015,11,17,13,15,11.90
2015,11,17,13,16,12.00
2015,11,17,13,17,12.00
2015,11,17,13,18,12.00
2015,11,17,13,19,12.00
2015,11,17,13,20,12.10
2015,11,17,13,21,12.10
2015,11,17,13,22,12.10
2015,11,17,13,23,12.10
2015,11,17,13,24,12.10
2015,11,17,13,25,12.10
2015,11,17,13,26,12.10
2015,11,17,13,27,12.10
2015,11,17,13,28,12.00
2015,11,17,13,29,12.00
2015,11,17,13,30,12.10
2015,11,17,13,31,12.10
2015,11,17,13,32,12.10
2015,11,17,13,33,12.20
2015,11,17,13,34,12.20
2015,11,17,13,35,12.20
2015,11,17,13,36,12.20
2015,11,17,13,37,12.10
2015,11,17,13,38,12.10
2015,11,17,13,39,12.10
2015,11,17,13,40,12.00
2015,11,17,13,41,11.90
2015,11,17,13,42,11.90
2015,11,17,13,43,11.80
2015,11,17,13,44,11.70
2015,11,17,13,45,11.60
2015,11,17,13,46,11.50
2015,11,17,13,47,11.40
2015,11,17,13,48,11.30
2015,11,17,13,49,11.20
2015,11,17,13,50,11.20
2015,11,17,13,51,11.10
2015,11,17,13,52,11.00
2015,11,17,13,53,10.90
2015,11,17,13,54,10.80
2015,11,17,13,55,10.70
2015,11,17,13,56,10.60
2015,11,17,13,57,10.50
2015,11,17,13,58,10.40
2015,11,17,13,59,10.30
2015,11,17,14,00,10.20
2015,11,17,14,01,10.00
2015,11,17,14,02,9.90
2015,11,17,14,03,9.80
2015,11,17,14,04,9.70
2015,11,17,14,05,9.50
2015,11,17,14,06,9.40
2015,11,17,14,07,9.30
2015,11,17,14,08,9.10
2015,11,17,14,09,9.00
2015,11,17,14,10,8.90
2015,11,17,14,11,8.80
2015,11,17,14,12,8.70
2015,11,17,14,13,8.60
2015,11,17,14,14,8.50
2015,11,17,14,15,8.50
2015,11,17,14,16,8.40
2015,11,17,14,17,8.30
2015,11,17,14,18,8.30
2015,11,17,14,19,8.30
2015,11,17,14,20,8.30
2015,11,17,14,21,8.30
2015,11,17,14,22,8.20
2015,11,17,14,23,8.20
2015,11,17,14,24,8.10
2015,11,17,14,25,8.10
2015,11,17,14,26,8.00
2015,11,17,14,27,7.90
2015,11,17,14,28,7.90
2015,11,17,14,29,7.90
2015,11,17,14,30,7.80
2015,11,17,14,31,7.80
2015,11,17,14,32,7.70
2015,11,17,14,33,7.70
2015,11,17,14,34,7.60
2015,11,17,14,35,7.60
2015,11,17,14,36,7.60
2015,11,17,14,37,7.60
2015,11,17,14,38,7.50
2015,11,17,14,39,7.50
2015,11,17,14,40,7.50
2015,11,17,14,41,7.50
2015,11,17,14,42,7.40
2015,11,17,14,43,7.40
2015,11,17,14,44,7.40
2015,11,17,14,45,7.40
2015,11,17,14,46,7.40
2015,11,17,14,47,7.30
2015,11,17,14,48,7.30
2015,11,17,14,49,7.30
2015,11,17,14,50,7.30
2015,11,17,14,51,7.30
2015,11,17,14,52,7.20
2015,11,17,14,53,7.20
2015,11,17,14,54,7.20
2015,11,17,14,55,7.20
2015,11,17,14,56,7.20
2015,11,17,14,57,7.10
2015,11,17,14,58,7.10
2015,11,17,14,59,7.00
2015,11,17,15,00,6.90
2015,11,17,15,01,6.90
2015,11,17,15,02,6.80
2015,11,17,15,03,6.70
2015,11,17,15,04,6.70
2015,11,17,15,05,6.70
2015,11,17,15,06,6.60
2015,11,17,15,07,6.60
2015,11,17,15,08,6.60
2015,11,17,15,09,6.60
2015,11,17,15,10,6.60
2015,11,17,15,11,6.60
2015,11,17,15,12,6.60
2015,11,17,15,13,6.60
2015,11,17,15,14,6.60
2015,11,17,15,15,6.60
2015,11,17,15,16,6.60
2015,11,17,15,17,6.60
2015,11,17,15,18,6.60
2015,11,17,15,19,6.60
2015,11,17,15,20,6.60
2015,11,17,15,21,6.60
2015,11,17,15,22,6.60
2015,11,17,15,23,6.60
2015,11,17,15,24,6.60
2015,11,17,15,25,6.60
2015,11,17,15,26,6.60
2015,11,17,15,27,6.60
2015,11,17,15,28,6.70
2015,11,17,15,29,6.70
2015,11,17,15,30,6.70
2015,11,17,15,31,6.70
2015,11,17,15,32,6.70
2015,11,17,15,33,6.70
2015,11,17,15,34,6.70
2015,11,17,15,35,6.80
2015,11,17,15,36,6.80
2015,11,17,15,37,6.80
2015,11,17,15,38,6.80
2015,11,17,15,39,6.80
2015,11,17,15,40,6.90
2015,11,17,15,41,6.90
2015,11,17,15,42,6.90
2015,11,17,15,43,6.90
2015,11,17,15,44,6.90
2015,11,17,15,45,6.90
2015,11,17,15,46,6.90
2015,11,17,15,47,6.90
2015,11,17,15,48,6.90
2015,11,17,15,49,6.90
2015,11,17,15,50,6.90
2015,11,17,15,51,6.90
2015,11,17,15,52,6.90
2015,11,17,15,53,6.90
2015,11,17,15,54,6.90
2015,11,17,15,55,6.90
2015,11,17,15,56,6.90
2015,11,17,15,57,6.90
2015,11,17,15,58,6.90
2015,11,17,15,59,6.90
2015,11,17,16,00,6.90
2015,11,17,16,01,6.90
2015,11,17,16,02,6.90
2015,11,17,16,03,6.90
2015,11,17,16,04,6.90
2015,11,17,16,05,6.90
2015,11,17,16,06,6.90
2015,11,17,16,07,6.90
2015,11,17,16,08,6.90
2015,11,17,16,09,6.90
2015,11,17,16,10,6.90
2015,11,17,16,11,6.90
2015,11,17,16,12,6.80
2015,11,17,16,13,6.80
2015,11,17,16,14,6.80
2015,11,17,16,15,6.70
2015,11,17,16,16,6.70
2015,11,17,16,17,6.70
2015,11,17,16,18,6.60
2015,11,17,16,19,6.60
2015,11,17,16,20,6.60
2015,11,17,16,21,6.50
2015,11,17,16,22,6.50
2015,11,17,16,23,6.40
2015,11,17,16,24,6.40
2015,11,17,16,25,6.30
2015,11,17,16,26,6.30
2015,11,17,16,27,6.20
2015,11,17,16,28,6.20
2015,11,17,16,29,6.20
2015,11,17,16,30,6.10
2015,11,17,16,31,6.10
2015,11,17,16,32,6.10
2015,11,17,16,33,6.10
2015,11,17,16,34,6.10
2015,11,17,16,35,6.00
2015,11,17,16,36,6.00
2015,11,17,16,37,6.00
2015,11,17,16,38,6.00
2015,11,17,16,39,5.90
2015,11,17,16,40,5.90
2015,11,17,16,41,5.90
2015,11,17,16,42,5.90
2015,11,17,16,43,5.90
2015,11,17,16,44,5.90
2015,11,17,16,45,5.90
2015,11,17,16,46,5.90
2015,11,17,16,47,5.90
2015,11,17,16,48,5.90
2015,11,17,16,49,5.90
2015,11,17,16,50,5.90
2015,11,17,16,51,5.90
2015,11,17,16,52,5.90
2015,11,17,16,53,5.90
2015,11,17,16,54,5.90
2015,11,17,16,55,5.90
2015,11,17,16,56,5.90
2015,11,17,16,57,5.90
2015,11,17,16,58,5.90
2015,11,17,16,59,5.90
2015,11,17,17,00,5.90
2015,11,17,17,01,5.90
2015,11,17,17,02,5.90
2015,11,17,17,03,5.90
2015,11,17,17,04,5.90
2015,11,17,17,05,5.80
2015,11,17,17,06,5.80
2015,11,17,17,07,5.80
2015,11,17,17,08,5.80
2015,11,17,17,09,5.80
2015,11,17,17,10,5.80
2015,11,17,17,11,5.80
2015,11,17,17,12,5.80
2015,11,17,17,13,5.80
2015,11,17,17,14,5.80
2015,11,17,17,15,5.80
2015,11,17,17,16,5.80
2015,11,17,17,17,5.80
2015,11,17,17,18,5.80
2015,11,17,17,19,5.80
2015,11,17,17,20,5.80
2015,11,17,17,21,5.80
2015,11,17,17,22,5.80
2015,11,17,17,23,5.80
2015,11,17,17,24,5.80
2015,11,17,17,25,5.80
2015,11,17,17,26,5.80
2015,11,17,17,27,5.80
2015,11,17,17,28,5.80
2015,11,17,17,29,5.80
2015,11,17,17,30,5.70
2015,11,17,17,31,5.70
2015,11,17,17,32,5.70
2015,11,17,17,33,5.70
2015,11,17,17,34,5.70
2015,11,17,17,35,5.70
2015,11,17,17,36,5.80
2015,11,17,17,37,5.80
2015,11,17,17,38,5.80
2015,11,17,17,39,5.80
2015,11,17,17,40,5.80
2015,11,17,17,41,5.80
2015,11,17,17,42,5.80
2015,11,17,17,43,5.80
2015,11,17,17,44,5.80
2015,11,17,17,45,5.80
2015,11,17,17,46,5.80
2015,11,17,17,47,5.80
2015,11,17,17,48,5.70
2015,11,17,17,49,5.70
2015,11,17,17,50,5.70
2015,11,17,17,51,5.70
2015,11,17,17,52,5.70
2015,11,17,17,53,5.70
2015,11,17,17,54,5.70
2015,11,17,17,55,5.70